Location: Walnut Point State Park
(39.6958°N, 88.0345°W)
Time: 04:24:05
(UTC-05:00)

Cosmos 1833 Rocket - Visible Passes

Search period start: 29 March 2015 00:00
Search period end: 08 April 2015 00:00
Orbit: 834 x 838 km, 71.0° (Epoch: 28 March)

Date Brightness Start Highest point End Pass type
(mag) Time Alt. Az. Time Alt. Az. Time Alt. Az.
29 Mar 5.4 02:21:59 10° N 02:22:29 12° N 02:22:29 12° N visible
30 Mar 5.4 02:05:25 10° N 02:05:53 12° N 02:05:53 12° N visible
31 Mar 5.4 01:48:51 10° N 01:49:21 12° N 01:49:21 12° N visible
01 Apr 5.4 01:32:16 10° N 01:32:51 13° N 01:32:51 13° N visible
02 Apr 5.4 01:15:43 10° N 01:16:22 13° N 01:16:22 13° N visible
03 Apr 5.4 00:59:10 10° N 00:59:56 13° N 00:59:56 13° N visible
04 Apr 5.4 00:42:38 10° N 00:43:30 14° N 00:43:30 14° N visible
05 Apr 5.3 00:26:06 10° N 00:27:07 14° N 00:27:07 14° N visible
06 Apr 5.3 00:09:34 10° N 00:10:44 14° NNE 00:10:44 14° NNE visible
06 Apr 5.2 23:53:03 10° N 23:54:23 15° NNE 23:54:23 15° NNE visible
07 Apr 5.5 01:36:03 10° NNW 01:36:04 10° NNW 01:36:04 10° NNW visible
07 Apr 5.1 23:36:33 10° N 23:38:02 15° NNE 23:38:02 15° NNE visible
